| time (UTC) | temp C | wind direction | speed KPH | gust KPH | rain 1hr cm | rain 24hr cm | rain mn cm | humidity % | barometer mb |
| 20260502140118 | 14 | 157 | 0.0 | 0.0 | 0.00 | 0.00 | 0.00 | 10 | 1021.4 |
| 20260502130543 | 11 | 180 | 0.0 | 0.0 | 0.00 | 0.00 | 0.00 | 10 | 1020.3 |
| 20260502123526 | 11 | 175 | 0.0 | 1.6 | 0.00 | 0.00 | 0.00 | 10 | 1020.4 |
| 20260502123022 | 11 | 195 | 0.0 | 0.0 | 0.00 | 0.00 | 0.00 | 10 | 1020.2 |
| 20260502122519 | 11 | 206 | 0.0 | 0.0 | 0.00 | 0.00 | 0.00 | 10 | 1020.1 |
| 20260502122017 | 12 | 150 | 0.0 | 0.0 | 0.00 | 0.00 | 0.00 | 10 | 1020.2 |
| 20260502121514 | 12 | 150 | 0.0 | 1.6 | 0.00 | 0.00 | 0.00 | 10 | 1020.1 |
| 20260502121011 | 11 | 150 | 0.0 | 1.6 | 0.00 | 0.00 | 0.00 | 10 | 1019.9 |
| 20260502120507 | 12 | 152 | 0.0 | 0.0 | 0.00 | 0.00 | 0.00 | 10 | 1020.0 |
| 20260502115502 | 12 | 195 | 0.0 | 0.0 | 0.00 | 0.00 | 0.00 | 10 | 1020.0 |
| 20260502114958 | 11 | 150 | 1.6 | 1.6 | 0.00 | 0.00 | 0.00 | 10 | 1019.7 |
| 20260502114455 | 11 | 150 | 0.0 | 1.6 | 0.00 | 0.00 | 0.00 | 10 | 1019.9 |
| 20260502113952 | 11 | 150 | 3.2 | 3.2 | 0.00 | 0.00 | 0.00 | 10 | 1019.9 |
| 20260502113449 | 12 | 199 | 0.0 | 1.6 | 0.00 | 0.00 | 0.00 | 10 | 1020.0 |
| 20260502112948 | 13 | 149 | 1.6 | 1.6 | 0.00 | 0.00 | 0.00 | 10 | 1019.7 |
| 20260502112445 | 13 | 146 | 0.0 | 0.0 | 0.00 | 0.00 | 0.00 | 10 | 1019.9 |
| 20260502111942 | 12 | 150 | 0.0 | 0.0 | 0.00 | 0.00 | 0.00 | 10 | 1019.9 |
| 20260502111439 | 12 | 188 | 0.0 | 1.6 | 0.00 | 0.00 | 0.00 | 10 | 1019.7 |
| 20260502110937 | 12 | 194 | 1.6 | 1.6 | 0.00 | 0.00 | 0.00 | 10 | 1019.7 |
| 20260502110434 | 13 | 176 | 1.6 | 1.6 | 0.00 | 0.00 | 0.00 | 10 | 1020.0 |
| 20260502105931 | 13 | 144 | 0.0 | 0.0 | 0.00 | 0.00 | 0.00 | 10 | 1019.9 |
| 20260502105429 | 13 | 144 | 0.0 | 0.0 | 0.00 | 0.00 | 0.00 | 10 | 1019.7 |
| 20260502104927 | 13 | 144 | 0.0 | 0.0 | 0.00 | 0.00 | 0.00 | 10 | 1019.9 |
| 20260502104424 | 13 | 83 | 0.0 | 0.0 | 0.00 | 0.00 | 0.00 | 10 | 1019.7 |
| 20260502103921 | 13 | 179 | 0.0 | 0.0 | 0.00 | 0.00 | 0.00 | 10 | 1019.7 |
| 20260502103419 | 12 | 182 | 0.0 | 0.0 | 0.00 | 0.00 | 0.00 | 10 | 1019.6 |
| 20260502102915 | 13 | 192 | 0.0 | 0.0 | 0.00 | 0.00 | 0.00 | 10 | 1019.6 |
| 20260502102412 | 13 | 155 | 1.6 | 3.2 | 0.00 | 0.00 | 0.00 | 10 | 1020.0 |
| 20260502101909 | 12 | 159 | 1.6 | 1.6 | 0.00 | 0.00 | 0.00 | 10 | 1020.0 |
| 20260502101408 | 13 | 159 | 0.0 | 0.0 | 0.00 | 0.00 | 0.00 | 10 | 1019.9 |
| 20260502100905 | 13 | 146 | 0.0 | 1.6 | 0.00 | 0.00 | 0.00 | 10 | 1019.5 |
| 20260502100405 | 13 | 88 | 1.6 | 1.6 | 0.00 | 0.00 | 0.00 | 10 | 1019.6 |
| 20260502091338 | 15 | 174 | 0.0 | 0.0 | 0.00 | 0.00 | 0.00 | 10 | 1019.4 |
| 20260502090836 | 15 | 174 | 0.0 | 0.0 | 0.00 | 0.00 | 0.00 | 10 | 1019.4 |
| 20260502090332 | 15 | 166 | 0.0 | 0.0 | 0.00 | 0.00 | 0.00 | 10 | 1019.4 |
| 20260502071227 | 18 | 173 | 3.2 | 3.2 | 0.00 | 0.00 | 0.00 | 10 | 1019.2 |
| 20260502070726 | 18 | 153 | 1.6 | 3.2 | 0.00 | 0.00 | 0.00 | 10 | 1019.2 |
| 20260502070223 | 18 | 157 | 4.8 | 4.8 | 0.00 | 0.00 | 0.00 | 10 | 1019.1 |
| 20260502065721 | 19 | 189 | 0.0 | 0.0 | 0.00 | 0.00 | 0.00 | 10 | 1019.1 |
| 20260502065219 | 18 | 225 | 0.0 | 0.0 | 0.00 | 0.00 | 0.00 | 10 | 1019.4 |
| 20260502064717 | 18 | 152 | 4.8 | 4.8 | 0.00 | 0.00 | 0.00 | 10 | 1019.1 |
| 20260502064215 | 18 | 148 | 1.6 | 3.2 | 0.00 | 0.00 | 0.00 | 10 | 1019.1 |
| 20260502063712 | 19 | 233 | 4.8 | 8.0 | 0.00 | 0.00 | 0.00 | 10 | 1018.9 |
| 20260502063210 | 20 | 224 | 0.0 | 0.0 | 0.00 | 0.00 | 0.00 | 10 | 1018.9 |
| 20260502062706 | 20 | 229 | 4.8 | 4.8 | 0.00 | 0.00 | 0.00 | 10 | 1018.7 |
| 20260502062204 | 21 | 34 | 4.8 | 4.8 | 0.00 | 0.00 | 0.00 | 10 | 1018.9 |
| 20260502061702 | 21 | 31 | 4.8 | 4.8 | 0.00 | 0.00 | 0.00 | 10 | 1018.7 |
| 20260502061159 | 21 | 60 | 6.4 | 9.7 | 0.00 | 0.00 | 0.00 | 10 | 1018.7 |
| 20260502060654 | 21 | 54 | 4.8 | 4.8 | 0.00 | 0.00 | 0.00 | 10 | 1018.9 |
| 20260502060151 | 21 | 56 | 4.8 | 9.7 | 0.00 | 0.00 | 0.00 | 10 | 1018.4 |
| 20260502055649 | 21 | 53 | 3.2 | 3.2 | 0.00 | 0.00 | 0.00 | 10 | 1018.7 |
| 20260502055147 | 21 | 107 | 9.7 | 11.3 | 0.00 | 0.00 | 0.00 | 10 | 1018.2 |
| 20260502054646 | 21 | 136 | 6.4 | 11.3 | 0.00 | 0.00 | 0.00 | 10 | 1018.2 |
| 20260502054142 | 21 | 130 | 3.2 | 4.8 | 0.00 | 0.00 | 0.00 | 10 | 1018.3 |
| 20260502053640 | 21 | 87 | 4.8 | 4.8 | 0.00 | 0.00 | 0.00 | 10 | 1018.3 |
| 20260502053137 | 21 | 118 | 4.8 | 8.0 | 0.00 | 0.00 | 0.00 | 10 | 1018.3 |
| 20260502052635 | 21 | 61 | 9.7 | 17.7 | 0.00 | 0.00 | 0.00 | 10 | 1018.0 |
| 20260502052133 | 21 | 116 | 11.3 | 14.5 | 0.00 | 0.00 | 0.00 | 10 | 1018.3 |
| 20260502051631 | 21 | 129 | 8.0 | 12.9 | 0.00 | 0.00 | 0.00 | 10 | 1018.2 |
| 20260502051129 | 22 | 43 | 4.8 | 9.7 | 0.00 | 0.00 | 0.00 | 10 | 1018.1 |
| 20260502050625 | 22 | 146 | 4.8 | 11.3 | 0.00 | 0.00 | 0.00 | 10 | 1017.9 |
| 20260502050121 | 22 | 89 | 16.1 | 24.1 | 0.00 | 0.00 | 0.00 | 10 | 1018.1 |
| 20260502045618 | 22 | 48 | 6.4 | 11.3 | 0.00 | 0.00 | 0.00 | 10 | 1018.0 |
| 20260502045115 | 22 | 112 | 12.9 | 16.1 | 0.00 | 0.00 | 0.00 | 10 | 1017.8 |
| 20260502044612 | 21 | 96 | 11.3 | 14.5 | 0.00 | 0.00 | 0.00 | 10 | 1017.9 |
| 20260502044109 | 21 | 92 | 4.8 | 9.7 | 0.00 | 0.00 | 0.00 | 10 | 1017.9 |
| 20260502043606 | 22 | 86 | 3.2 | 4.8 | 0.00 | 0.00 | 0.00 | 10 | 1017.9 |
| 20260502043102 | 22 | 67 | 8.0 | 14.5 | 0.00 | 0.00 | 0.00 | 10 | 1017.8 |
| 20260502042557 | 22 | 164 | 8.0 | 11.3 | 0.00 | 0.00 | 0.00 | 10 | 1017.6 |
| 20260502042055 | 22 | 40 | 11.3 | 14.5 | 0.00 | 0.00 | 0.00 | 10 | 1017.7 |
| 20260502041552 | 22 | 44 | 9.7 | 14.5 | 0.00 | 0.00 | 0.00 | 10 | 1017.3 |
| 20260502041049 | 22 | 93 | 9.7 | 14.5 | 0.00 | 0.00 | 0.00 | 10 | 1017.3 |
| 20260502040546 | 22 | 69 | 4.8 | 4.8 | 0.00 | 0.00 | 0.00 | 10 | 1017.1 |
| 20260502040043 | 22 | 64 | 6.4 | 9.7 | 0.00 | 0.00 | 0.00 | 10 | 1017.0 |
| 20260502035538 | 22 | 44 | 6.4 | 8.0 | 0.00 | 0.00 | 0.00 | 10 | 1017.0 |
| 20260502035036 | 22 | 14 | 3.2 | 11.3 | 0.00 | 0.00 | 0.00 | 10 | 1017.1 |
| 20260502034535 | 22 | 48 | 8.0 | 9.7 | 0.00 | 0.00 | 0.00 | 10 | 1016.9 |
| 20260502034032 | 22 | 34 | 4.8 | 4.8 | 0.00 | 0.00 | 0.00 | 10 | 1016.7 |
| 20260502033530 | 22 | 32 | 4.8 | 4.8 | 0.00 | 0.00 | 0.00 | 10 | 1016.9 |
| 20260502033027 | 22 | 80 | 4.8 | 8.0 | 0.00 | 0.00 | 0.00 | 10 | 1016.7 |
| 20260502032523 | 22 | 41 | 4.8 | 8.0 | 0.00 | 0.00 | 0.00 | 10 | 1016.6 |
| 20260502032020 | 22 | 86 | 6.4 | 9.7 | 0.00 | 0.00 | 0.00 | 10 | 1016.4 |
| 20260502031518 | 22 | 40 | 6.4 | 8.0 | 0.00 | 0.00 | 0.00 | 10 | 1016.6 |
| 20260502031016 | 23 | 40 | 6.4 | 8.0 | 0.00 | 0.00 | 0.00 | 10 | 1016.4 |
| 20260502030514 | 23 | 34 | 8.0 | 12.9 | 0.00 | 0.00 | 0.00 | 10 | 1016.4 |
| 20260502030012 | 23 | 43 | 4.8 | 8.0 | 0.00 | 0.00 | 0.00 | 10 | 1016.4 |
| 20260502025509 | 23 | 63 | 3.2 | 3.2 | 0.00 | 0.00 | 0.00 | 10 | 1016.2 |
| 20260502025007 | 23 | 50 | 4.8 | 8.0 | 0.00 | 0.00 | 0.00 | 10 | 1016.2 |
| 20260502024504 | 23 | 39 | 1.6 | 1.6 | 0.00 | 0.00 | 0.00 | 10 | 1016.2 |
| 20260502024003 | 23 | 118 | 1.6 | 3.2 | 0.00 | 0.00 | 0.00 | 10 | 1016.0 |
| 20260502023500 | 23 | 134 | 3.2 | 4.8 | 0.00 | 0.00 | 0.00 | 10 | 1016.0 |
| 20260502022957 | 23 | 62 | 3.2 | 4.8 | 0.00 | 0.00 | 0.00 | 10 | 1015.9 |
| 20260502022453 | 23 | 48 | 4.8 | 4.8 | 0.00 | 0.00 | 0.00 | 10 | 1015.9 |
| 20260502021950 | 23 | 37 | 1.6 | 4.8 | 0.00 | 0.00 | 0.00 | 10 | 1015.9 |
| 20260502021448 | 24 | 42 | 6.4 | 11.3 | 0.00 | 0.00 | 0.00 | 10 | 1015.8 |
| 20260502020944 | 24 | 59 | 3.2 | 3.2 | 0.00 | 0.00 | 0.00 | 10 | 1015.7 |
| 20260502020443 | 25 | 145 | 4.8 | 8.0 | 0.00 | 0.00 | 0.00 | 10 | 1015.8 |
| 20260502015939 | 25 | 87 | 4.8 | 8.0 | 0.00 | 0.00 | 0.00 | 10 | 1015.8 |
| 20260502015437 | 25 | 70 | 6.4 | 9.7 | 0.00 | 0.00 | 0.00 | 10 | 1015.7 |
| 20260502014933 | 25 | 76 | 4.8 | 11.3 | 0.00 | 0.00 | 0.00 | 10 | 1015.5 |
| 20260502014430 | 25 | 148 | 4.8 | 8.0 | 0.00 | 0.00 | 0.00 | 10 | 1015.5 |
| 20260502013927 | 25 | 146 | 4.8 | 9.7 | 0.00 | 0.00 | 0.00 | 10 | 1015.6 |
| 20260502013422 | 25 | 77 | 3.2 | 4.8 | 0.00 | 0.00 | 0.00 | 10 | 1015.5 |
| 20260502012919 | 25 | 129 | 4.8 | 8.0 | 0.00 | 0.00 | 0.00 | 10 | 1015.5 |
| 20260502012417 | 25 | 121 | 3.2 | 4.8 | 0.00 | 0.00 | 0.00 | 10 | 1015.6 |
| 20260502011914 | 25 | 141 | 4.8 | 8.0 | 0.00 | 0.00 | 0.00 | 10 | 1015.6 |
| 20260502011410 | 25 | 67 | 3.2 | 4.8 | 0.00 | 0.00 | 0.00 | 10 | 1015.5 |
| 20260502010908 | 25 | 17 | 4.8 | 8.0 | 0.00 | 0.00 | 0.00 | 10 | 1015.4 |
| 20260502010404 | 25 | 35 | 8.0 | 12.9 | 0.00 | 0.00 | 0.00 | 10 | 1015.4 |
| 20260502005900 | 25 | 73 | 4.8 | 4.8 | 0.00 | 0.00 | 0.00 | 10 | 1015.6 |
| 20260502005358 | 26 | 100 | 8.0 | 11.3 | 0.00 | 0.00 | 0.00 | 10 | 1015.4 |
| 20260502004856 | 26 | 106 | 8.0 | 11.3 | 0.00 | 0.00 | 0.00 | 10 | 1015.3 |
| 20260502004351 | 26 | 58 | 4.8 | 4.8 | 0.00 | 0.00 | 0.00 | 10 | 1015.3 |
| 20260502003849 | 26 | 24 | 9.7 | 12.9 | 0.00 | 0.00 | 0.00 | 10 | 1015.5 |
| 20260502003346 | 26 | 44 | 1.6 | 4.8 | 0.00 | 0.00 | 0.00 | 10 | 1015.5 |
| 20260502002842 | 26 | 44 | 6.4 | 11.3 | 0.00 | 0.00 | 0.00 | 10 | 1015.5 |
| 20260502002340 | 26 | 324 | 11.3 | 16.1 | 0.00 | 0.00 | 0.00 | 10 | 1015.6 |
| 20260502001837 | 26 | 341 | 11.3 | 16.1 | 0.00 | 0.00 | 0.00 | 10 | 1015.4 |
| 20260502001335 | 26 | 335 | 12.9 | 17.7 | 0.00 | 0.00 | 0.00 | 10 | 1015.5 |
| 20260502000832 | 26 | 0 | 14.5 | 22.5 | 0.00 | 0.00 | 0.00 | 10 | 1015.2 |
| 20260502000332 | 26 | 165 | 4.8 | 8.0 | 0.00 | 0.00 | 0.00 | 10 | 1015.4 |
| 20260501235826 | 26 | 61 | 9.7 | 16.1 | 0.00 | 0.00 | 0.00 | 10 | 1015.6 |
| 20260501235322 | 26 | 54 | 11.3 | 16.1 | 0.00 | 0.00 | 0.00 | 10 | 1015.5 |
| 20260501234817 | 26 | 67 | 12.9 | 16.1 | 0.00 | 0.00 | 0.00 | 10 | 1015.4 |
| 20260501234315 | 26 | 279 | 17.7 | 25.7 | 0.00 | 0.00 | 0.00 | 10 | 1015.2 |
| 20260501233813 | 26 | 23 | 12.9 | 17.7 | 0.00 | 0.00 | 0.00 | 10 | 1015.3 |
| 20260501233310 | 26 | 282 | 22.5 | 24.1 | 0.00 | 0.00 | 0.00 | 10 | 1015.0 |
| 20260501232805 | 26 | 48 | 4.8 | 9.7 | 0.00 | 0.00 | 0.00 | 10 | 1015.2 |
| 20260501232305 | 26 | 39 | 4.8 | 8.0 | 0.00 | 0.00 | 0.00 | 10 | 1015.5 |
| 20260501231800 | 26 | 49 | 9.7 | 12.9 | 0.00 | 0.00 | 0.00 | 10 | 1015.3 |
| 20260501231258 | 26 | 125 | 4.8 | 9.7 | 0.00 | 0.00 | 0.00 | 10 | 1015.1 |
| 20260501230756 | 26 | 131 | 8.0 | 12.9 | 0.00 | 0.00 | 0.00 | 10 | 1015.0 |
| 20260501230255 | 26 | 37 | 9.7 | 14.5 | 0.00 | 0.00 | 0.00 | 10 | 1015.0 |
| 20260501225752 | 26 | 71 | 9.7 | 12.9 | 0.00 | 0.00 | 0.00 | 10 | 1015.1 |
| 20260501225250 | 25 | 57 | 8.0 | 11.3 | 0.00 | 0.00 | 0.00 | 10 | 1015.2 |
| 20260501224745 | 25 | 49 | 8.0 | 11.3 | 0.00 | 0.00 | 0.00 | 10 | 1015.4 |
| 20260501224243 | 26 | 79 | 3.2 | 4.8 | 0.00 | 0.00 | 0.00 | 10 | 1015.2 |
| 20260501223739 | 27 | 131 | 9.7 | 14.5 | 0.00 | 0.00 | 0.00 | 10 | 1015.3 |
| 20260501223235 | 27 | 36 | 12.9 | 20.9 | 0.00 | 0.00 | 0.00 | 10 | 1015.0 |
| 20260501222731 | 27 | 81 | 9.7 | 12.9 | 0.00 | 0.00 | 0.00 | 10 | 1015.2 |
| 20260501222229 | 27 | 67 | 3.2 | 4.8 | 0.00 | 0.00 | 0.00 | 10 | 1015.3 |
| 20260501221726 | 27 | 81 | 1.6 | 3.2 | 0.00 | 0.00 | 0.00 | 10 | 1015.7 |
| 20260501221223 | 26 | 43 | 3.2 | 3.2 | 0.00 | 0.00 | 0.00 | 10 | 1015.4 |
| 20260501220720 | 26 | 40 | 8.0 | 9.7 | 0.00 | 0.00 | 0.00 | 10 | 1015.6 |
| 20260501220218 | 27 | 63 | 6.4 | 9.7 | 0.00 | 0.00 | 0.00 | 10 | 1015.7 |
| 20260501215715 | 27 | 46 | 6.4 | 11.3 | 0.00 | 0.00 | 0.00 | 10 | 1014.8 |
| 20260501215210 | 27 | 235 | 9.7 | 12.9 | 0.00 | 0.00 | 0.00 | 10 | 1015.7 |
| 20260501214705 | 26 | 255 | 4.8 | 4.8 | 0.00 | 0.00 | 0.00 | 10 | 1015.8 |
| 20260501214201 | 26 | 302 | 8.0 | 8.0 | 0.00 | 0.00 | 0.00 | 10 | 1015.7 |
| 20260501213658 | 26 | 253 | 14.5 | 16.1 | 0.00 | 0.00 | 0.00 | 10 | 1015.7 |
| 20260501213153 | 26 | 359 | 11.3 | 14.5 | 0.00 | 0.00 | 0.00 | 10 | 1016.0 |
| 20260501212650 | 27 | 315 | 17.7 | 22.5 | 0.00 | 0.00 | 0.00 | 10 | 1016.0 |
| 20260501212147 | 26 | 236 | 6.4 | 9.7 | 0.00 | 0.00 | 0.00 | 10 | 1015.9 |
| 20260501211644 | 26 | 230 | 3.2 | 4.8 | 0.00 | 0.00 | 0.00 | 10 | 1016.0 |
| 20260501211141 | 26 | 114 | 4.8 | 8.0 | 0.00 | 0.00 | 0.00 | 10 | 1016.3 |
| 20260501210638 | 25 | 306 | 6.4 | 9.7 | 0.00 | 0.00 | 0.00 | 10 | 1016.3 |
| 20260501210135 | 26 | 262 | 14.5 | 16.1 | 0.00 | 0.00 | 0.00 | 10 | 1016.7 |
| 20260501205631 | 26 | 21 | 16.1 | 25.7 | 0.00 | 0.00 | 0.00 | 10 | 1016.4 |
| 20260501205129 | 26 | 45 | 1.6 | 1.6 | 0.00 | 0.00 | 0.00 | 10 | 1016.2 |
| 20260501204625 | 26 | 257 | 4.8 | 8.0 | 0.00 | 0.00 | 0.00 | 10 | 1016.5 |
| 20260501204121 | 25 | 273 | 3.2 | 3.2 | 0.00 | 0.00 | 0.00 | 10 | 1016.4 |
| 20260501203618 | 25 | 76 | 0.0 | 1.6 | 0.00 | 0.00 | 0.00 | 10 | 1016.5 |
| 20260501203115 | 26 | 132 | 0.0 | 0.0 | 0.00 | 0.00 | 0.00 | 10 | 1016.5 |
| 20260501202612 | 26 | 142 | 8.0 | 11.3 | 0.00 | 0.00 | 0.00 | 10 | 1016.5 |
| 20260501202109 | 26 | 66 | 8.0 | 11.3 | 0.00 | 0.00 | 0.00 | 10 | 1016.6 |
| 20260501201606 | 26 | 60 | 4.8 | 8.0 | 0.00 | 0.00 | 0.00 | 10 | 1016.5 |
| 20260501201102 | 26 | 40 | 14.5 | 16.1 | 0.00 | 0.00 | 0.00 | 10 | 1016.9 |
| 20260501200559 | 25 | 46 | 4.8 | 8.0 | 0.00 | 0.00 | 0.00 | 10 | 1016.8 |
| 20260501200057 | 25 | 64 | 1.6 | 3.2 | 0.00 | 0.00 | 0.00 | 10 | 1016.9 |
| 20260501195554 | 25 | 57 | 6.4 | 9.7 | 0.00 | 0.00 | 0.00 | 10 | 1016.9 |
| 20260501195049 | 25 | 236 | 6.4 | 8.0 | 0.00 | 0.00 | 0.00 | 10 | 1017.0 |
| 20260501194545 | 25 | 296 | 3.2 | 8.0 | 0.00 | 0.00 | 0.00 | 10 | 1017.0 |
| 20260501194041 | 25 | 301 | 9.7 | 12.9 | 0.00 | 0.00 | 0.00 | 10 | 1017.2 |
| 20260501193539 | 25 | 266 | 9.7 | 12.9 | 0.00 | 0.00 | 0.00 | 10 | 1017.1 |
| 20260501193038 | 25 | 30 | 8.0 | 9.7 | 0.00 | 0.00 | 0.00 | 10 | 1017.3 |
| 20260501192534 | 25 | 39 | 1.6 | 3.2 | 0.00 | 0.00 | 0.00 | 10 | 1017.1 |
| 20260501192032 | 24 | 148 | 3.2 | 4.8 | 0.00 | 0.00 | 0.00 | 10 | 1017.2 |
| 20260501191528 | 25 | 52 | 1.6 | 3.2 | 0.00 | 0.00 | 0.00 | 10 | 1017.7 |
| 20260501191026 | 23 | 254 | 4.8 | 4.8 | 0.00 | 0.00 | 0.00 | 10 | 1017.7 |
| 20260501190521 | 23 | 245 | 4.8 | 4.8 | 0.00 | 0.00 | 0.00 | 10 | 1017.6 |
| 20260501190017 | 23 | 256 | 1.6 | 1.6 | 0.00 | 0.00 | 0.00 | 10 | 1017.8 |
| 20260501185513 | 23 | 320 | 16.1 | 17.7 | 0.00 | 0.00 | 0.00 | 10 | 1017.6 |
| 20260501185009 | 25 | 330 | 14.5 | 16.1 | 0.00 | 0.00 | 0.00 | 10 | 1017.6 |
| 20260501184506 | 23 | 273 | 3.2 | 3.2 | 0.00 | 0.00 | 0.00 | 10 | 1017.8 |
| 20260501184001 | 23 | 255 | 12.9 | 16.1 | 0.00 | 0.00 | 0.00 | 10 | 1017.8 |
| 20260501183458 | 23 | 235 | 4.8 | 4.8 | 0.00 | 0.00 | 0.00 | 10 | 1018.1 |
| 20260501182954 | 23 | 318 | 12.9 | 14.5 | 0.00 | 0.00 | 0.00 | 10 | 1018.0 |
| 20260501182451 | 24 | 59 | 4.8 | 8.0 | 0.00 | 0.00 | 0.00 | 10 | 1018.3 |
| 20260501181948 | 23 | 290 | 6.4 | 8.0 | 0.00 | 0.00 | 0.00 | 10 | 1018.1 |
| 20260501181445 | 22 | 228 | 9.7 | 11.3 | 0.00 | 0.00 | 0.00 | 10 | 1018.3 |
| 20260501180942 | 22 | 59 | 0.0 | 0.0 | 0.00 | 0.00 | 0.00 | 10 | 1018.5 |
| 20260501180439 | 23 | 29 | 6.4 | 8.0 | 0.00 | 0.00 | 0.00 | 10 | 1018.5 |
| 20260501175935 | 23 | 43 | 8.0 | 9.7 | 0.00 | 0.00 | 0.00 | 10 | 1018.5 |
| 20260501175432 | 22 | 70 | 3.2 | 4.8 | 0.00 | 0.00 | 0.00 | 10 | 1018.2 |
| 20260501174929 | 23 | 57 | 6.4 | 9.7 | 0.00 | 0.00 | 0.00 | 10 | 1018.4 |
| 20260501174427 | 22 | 30 | 6.4 | 11.3 | 0.00 | 0.00 | 0.00 | 10 | 1018.7 |
| 20260501173924 | 23 | 48 | 4.8 | 8.0 | 0.00 | 0.00 | 0.00 | 10 | 1018.3 |
| 20260501173421 | 23 | 67 | 6.4 | 9.7 | 0.00 | 0.00 | 0.00 | 10 | 1018.5 |
| 20260501172916 | 22 | 58 | 3.2 | 4.8 | 0.00 | 0.00 | 0.00 | 10 | 1018.3 |
| 20260501172413 | 22 | 55 | 8.0 | 9.7 | 0.00 | 0.00 | 0.00 | 10 | 1018.3 |
| 20260501171908 | 22 | 68 | 4.8 | 4.8 | 0.00 | 0.00 | 0.00 | 10 | 1018.5 |
| 20260501171404 | 22 | 51 | 11.3 | 12.9 | 0.00 | 0.00 | 0.00 | 10 | 1018.7 |
| 20260501170901 | 22 | 282 | 4.8 | 4.8 | 0.00 | 0.00 | 0.00 | 10 | 1018.7 |
| 20260501170358 | 22 | 319 | 11.3 | 14.5 | 0.00 | 0.00 | 0.00 | 10 | 1018.7 |
| 20260501165856 | 21 | 73 | 8.0 | 11.3 | 0.00 | 0.00 | 0.00 | 10 | 1018.8 |
| 20260501165354 | 21 | 114 | 12.9 | 17.7 | 0.00 | 0.00 | 0.00 | 10 | 1018.8 |
| 20260501164851 | 21 | 13 | 12.9 | 16.1 | 0.00 | 0.00 | 0.00 | 10 | 1018.5 |
| 20260501164349 | 21 | 1 | 4.8 | 8.0 | 0.00 | 0.00 | 0.00 | 10 | 1018.7 |
| 20260501163844 | 21 | 336 | 14.5 | 16.1 | 0.00 | 0.00 | 0.00 | 10 | 1018.7 |
| 20260501163341 | 21 | 47 | 4.8 | 8.0 | 0.00 | 0.00 | 0.00 | 10 | 1018.9 |
| 20260501162838 | 20 | 302 | 6.4 | 8.0 | 0.00 | 0.00 | 0.00 | 10 | 1018.5 |
| 20260501162335 | 20 | 271 | 4.8 | 4.8 | 0.00 | 0.00 | 0.00 | 10 | 1018.8 |
| 20260501161831 | 20 | 353 | 9.7 | 11.3 | 0.00 | 0.00 | 0.00 | 10 | 1018.8 |
| 20260501161328 | 20 | 330 | 6.4 | 8.0 | 0.00 | 0.00 | 0.00 | 10 | 1018.8 |
| 20260501160825 | 20 | 272 | 9.7 | 12.9 | 0.00 | 0.00 | 0.00 | 10 | 1018.8 |
| 20260501160322 | 20 | 315 | 8.0 | 9.7 | 0.00 | 0.00 | 0.00 | 10 | 1018.5 |
| 20260501155819 | 20 | 317 | 14.5 | 16.1 | 0.00 | 0.00 | 0.00 | 10 | 1018.3 |
| 20260501155316 | 20 | 12 | 11.3 | 14.5 | 0.00 | 0.00 | 0.00 | 10 | 1018.5 |
| 20260501154813 | 20 | 44 | 12.9 | 16.1 | 0.00 | 0.00 | 0.00 | 10 | 1018.7 |
| 20260501154310 | 20 | 29 | 8.0 | 11.3 | 0.00 | 0.00 | 0.00 | 10 | 1018.7 |
| 20260501153807 | 20 | 134 | 3.2 | 4.8 | 0.00 | 0.00 | 0.00 | 10 | 1018.4 |
| 20260501153305 | 20 | 65 | 6.4 | 8.0 | 0.00 | 0.00 | 0.00 | 10 | 1018.5 |
| 20260501152800 | 20 | 43 | 8.0 | 11.3 | 0.00 | 0.00 | 0.00 | 10 | 1018.3 |
| 20260501152258 | 19 | 32 | 8.0 | 11.3 | 0.00 | 0.00 | 0.00 | 10 | 1018.3 |
| 20260501151755 | 19 | 22 | 8.0 | 12.9 | 0.00 | 0.00 | 0.00 | 10 | 1018.4 |
| 20260501151251 | 19 | 356 | 12.9 | 16.1 | 0.00 | 0.00 | 0.00 | 10 | 1018.4 |
| 20260501150747 | 18 | 52 | 9.7 | 11.3 | 0.00 | 0.00 | 0.00 | 10 | 1018.3 |
| 20260501150244 | 18 | 24 | 8.0 | 9.7 | 0.00 | 0.00 | 0.00 | 10 | 1018.3 |
| 20260501145740 | 18 | 79 | 4.8 | 9.7 | 0.00 | 0.00 | 0.00 | 10 | 1018.3 |
| 20260501145238 | 18 | 324 | 11.3 | 14.5 | 0.00 | 0.00 | 0.00 | 10 | 1018.3 |